Location: Bricy
(47.9985°N, 1.7794°E)
Time: 01:02:23
(UTC+00:00)

Daily predictions for brighter satellites

Satellite Brightness Start Highest point End
(mag) Time Altitude Azimuth Time Altitude Azimuth Time Altitude Azimuth
Cosmos 2333 4.1 00:03:50 10° NNW 00:09:39 78° WSW 00:10:14 70° SSW
Cosmos 1464 Rocket 4.1 00:08:47 52° SE 00:09:59 62° E 00:16:07 10° NNE
Cosmos 2219 Rocket 2.2 00:04:28 10° NNW 00:10:12 78° ENE 00:11:13 60° SE
Cosmos 836 Rocket 4.3 00:06:09 10° NNW 00:11:24 82° WSW 00:11:32 80° SW
Lacrosse 4 Rocket 1.9 00:13:01 54° NE 00:13:01 54° NE 00:16:23 10° NE
Cosmos 2233 Rocket 4.4 00:10:46 44° WSW 00:12:21 55° WNW 00:18:36 10° N
Cosmos 1782 Rocket 3.9 00:12:54 58° ENE 00:12:54 58° ENE 00:16:43 10° NNE
Cosmos 1354 Rocket 4.3 00:16:38 52° ESE 00:16:46 52° ESE 00:21:57 10° NNE
Cosmos 2322 Rocket 3.8 00:13:43 10° NW 00:17:43 21° W 00:17:43 21° W
Cosmos 968 Rocket 3.3 00:19:13 84° SSW 00:19:24 89° ESE 00:24:33 10° NNE
SL-4 R/B 4.3 00:22:19 13° ENE 00:22:19 13° ENE 00:22:45 10° ENE
Cosmos 1908 Rocket 3.9 00:21:10 58° NW 00:21:10 58° NW 00:25:12 10° N
Landsat 4 4.5 00:17:13 10° NNE 00:20:07 50° NNE 00:20:07 50° NNE
COSMOS 2428 2.6 00:22:33 10° NNW 00:28:19 87° WSW 00:29:12 66° SSE
SL-16 R/B 3.7 00:28:37 19° ESE 00:32:30 39° ENE 00:38:14 10° N
CENTAUR R/B 3.9 00:27:24 10° W 00:33:20 39° NNW 00:40:16 10° NE
Nadezhda 4 Rocket 4.1 00:27:16 10° N 00:33:37 73° E 00:35:18 50° SSE
Cosmos 2360 Rocket 3.4 00:28:58 10° NW 00:33:24 28° W 00:33:24 28° W
CZ-2D R/B 3.7 00:32:12 10° NE 00:36:39 25° E 00:38:05 22° ESE
Cosmos 2034 Rocket 4.0 00:35:41 53° SSE 00:37:05 70° E 00:43:22 10° NNE
Cosmos 1513 Rocket 4.5 00:37:32 57° SSW 00:38:59 82° W 00:45:27 10° N
USA 267 4.4 00:33:25 10° E 00:39:32 44° N 00:45:39 10° WNW
Cosmos 1072 Rocket 4.4 00:39:08 58° SSW 00:40:22 76° W 00:46:31 10° N
Cosmos 1743 4.4 00:41:15 27° WNW 00:41:15 27° WNW 00:44:12 10° NNW
Okean 2 Rocket 3.5 00:41:46 51° E 00:41:46 51° E 00:46:06 10° NNE
Meteor 2-9 Rocket 4.1 00:41:29 66° SW 00:42:15 81° WNW 00:47:57 10° N
GEOS 3 Rocket 3.9 00:37:08 10° NE 00:42:27 54° SE 00:42:46 53° SE
Cosmos 1544 4.5 00:45:29 33° NW 00:45:29 33° NW 00:48:06 10° N
Cosmos 1975 3.5 00:45:31 47° NW 00:45:31 47° NW 00:48:54 10° N
Cosmos 1092 Rocket 4.4 00:39:30 10° N 00:45:41 57° ENE 00:48:01 37° SE
Cosmos 1975 Rocket 3.4 00:41:35 10° NNW 00:45:36 55° WNW 00:45:36 55° WNW
Cosmos 2297 Rocket 3.4 00:45:36 27° ESE 00:46:29 29° ESE 00:51:16 10° NE
Cosmos 2219 4.1 00:45:50 32° ESE 00:46:37 33° ESE 00:51:35 10° NE
Cosmos 1980 4.1 00:41:42 10° NNW 00:47:21 60° ENE 00:49:51 32° SE
COSMOS 2487 4.5 00:48:08 22° NW 00:48:08 22° NW 00:50:29 10° N
Cosmos 2333 Rocket 2.4 00:42:24 10° NW 00:48:00 53° WSW 00:48:11 52° WSW
PSLV R/B 3.9 00:43:39 10° N 00:48:14 62° WNW 00:48:26 62° W
Sich 1 Rocket 3.5 00:48:43 82° N 00:48:43 82° N 00:52:57 10° N
Helios 1B rocket 2.5 00:45:06 10° NNE 00:48:49 71° N 00:48:49 71° N
Meteor 1-29 4.0 00:49:41 10° NNE 00:52:12 44° NE 00:52:12 44° NE
Cosmos 44 Rocket 3.2 00:49:46 10° NW 00:54:46 84° SW 00:55:08 76° S
Cosmos 783 Rocket 4.3 00:49:48 10° NNW 00:55:03 74° WSW 00:55:27 70° SSW
Cosmos 2237 Rocket 2.4 00:51:46 10° NNW 00:57:25 66° ENE 00:59:51 34° SE
Cosmos 1503 Rocket 4.1 00:56:39 57° WSW 00:57:31 68° WNW 01:02:54 10° NNE
Cosmos 1300 Rocket 3.6 00:57:53 69° E 00:57:53 69° E 01:02:06 10° NNE
CZ-4C R/B 4.3 01:04:19 34° ENE 01:04:28 34° ENE 01:07:41 10° N
CZ-4 R/B 4.3 01:00:16 10° N 01:05:04 51° WNW 01:05:48 47° W
Spot 1 4.0 01:06:48 72° E 01:06:58 73° ENE 01:11:04 10° N
Cosmos 2151 Rocket 3.5 01:12:29 73° SE 01:12:42 76° E 01:17:07 10° NNE
Meteor 1-12 Rocket 4.3 01:11:28 53° S 01:12:59 89° ESE 01:19:02 10° NNE
Timation 2 Rocket 3.9 01:14:34 51° SSW 01:16:14 80° ESE 01:22:18 10° NNE
Cosmos 1707 3.4 01:13:56 10° NNW 01:17:05 46° WNW 01:17:05 46° WNW
In-Cosmos 22 4.1 01:12:13 10° NNW 01:17:52 86° W 01:19:15 53° S
Cosmos 1805 4.3 01:24:26 36° ESE 01:24:50 37° E 01:28:26 10° NNE
SJ 16-02 3.1 01:25:10 20° ESE 01:26:20 22° E 01:29:46 10° NE
DNEPR-1 R/B 4.4 01:20:28 10° NW 01:26:30 64° NE 01:31:05 12° SE
ERBS 3.4 01:23:23 10° NW 01:26:33 42° NNE 01:29:42 10° ESE
Meteor 2-13 Rocket 4.3 01:26:00 10° NNW 01:32:06 76° W 01:34:10 44° S
Cosmos 1538 Rocket 3.8 01:29:18 10° NNW 01:34:29 78° WSW 01:35:51 50° S
Cosmos 2195 Rocket 4.5 01:28:26 10° NNW 01:34:44 75° W 01:37:03 41° S
Cosmos 2227 Rocket 2.5 01:33:34 41° SSE 01:35:16 57° ESE 01:40:50 10° NE
Cosmos 1025 Rocket 3.5 01:32:17 10° NNW 01:36:08 44° W 01:36:08 44° W
MOZ.5/SAFIR/RUBIN 5/SL-8 3.8 01:36:59 56° SW 01:37:30 59° W 01:42:13 10° NNW
Resurs 1-4 Rocket 2.1 01:32:29 10° NNE 01:37:48 76° ESE 01:39:24 46° S
Cosmos 1674 2.5 01:36:01 10° N 01:39:45 83° E 01:39:47 83° E
NOSS 0 Rocket 4.3 01:37:43 10° NW 01:43:34 44° WSW 01:44:39 40° SW
Cosmos 1733 4.1 01:42:54 37° ESE 01:43:35 41° E 01:47:13 10° NNE
Cosmos 773 Rocket 4.4 01:41:17 10° NW 01:46:04 40° WSW 01:46:17 40° WSW
ATLAS 3B R/B 4.0 01:40:56 11° W 01:46:33 33° NNW 01:52:34 10° NE
Cosmos 2279 Rocket 4.1 01:44:46 32° SSE 01:47:46 68° E 01:53:55 10° NNE
Cosmos 1536 Rocket 4.0 01:44:20 10° NNW 01:48:26 42° W 01:48:26 42° W
Cosmos 2026 Rocket 3.9 01:42:46 10° NNW 01:48:48 68° W 01:51:08 39° SSW
USA 215 3.6 01:42:36 10° ENE 01:48:56 50° SE 01:51:29 34° S
COBE Rocket 4.1 01:47:34 27° SE 01:50:00 61° ENE 01:54:36 10° N
Lacrosse 4 Rocket 3.6 01:49:19 14° WNW 01:51:18 18° NW 01:54:19 10° N
FALCON 9 DEB 4.3 01:49:23 10° WNW 01:52:45 43° NNE 01:56:06 10° E
Cosmos 1634 Rocket 4.0 01:50:26 39° SSW 01:52:54 73° W 01:59:10 10° N
Cosmos 2219 Rocket 3.8 01:49:41 10° WNW 01:52:54 18° W 01:52:54 18° W
Cosmos 2344 4.4 01:45:21 10° NW 01:54:53 71° SW 02:08:12 10° SSE
Cosmos 2082 4.3 01:53:29 30° SSE 01:55:52 48° ESE 02:01:15 10° NE
IRAS Rocket 4.4 01:57:00 40° SSW 01:58:31 51° WSW 02:03:59 10° NNW
SL-4 R/B 1.6 01:58:02 37° WNW 01:59:15 76° NNE 02:02:39 10° ESE
Cosmos 2142 Rocket 4.5 02:00:56 34° SSW 02:03:56 81° W 02:10:22 10° N
Meteor 1-24 Rocket 3.7 01:59:39 10° N 02:05:12 75° ENE 02:08:55 20° SSE
SL-16 R/B 2.2 02:00:21 10° NNW 02:06:05 83° ENE 02:11:47 10° SSE
CBERS-1 4.3 02:01:32 10° NNE 02:06:38 63° ESE 02:09:09 29° S
Meteor 2-5 Rocket 3.6 02:03:15 10° NNW 02:08:55 80° W 02:11:59 28° S
ARIANE 5 R/B 3.8 02:09:11 10° NNE 02:14:00 36° E 02:18:02 14° SSE
Cosmos 1898 Rocket 4.4 02:11:41 22° SSE 02:14:41 43° ESE 02:19:36 10° NE
NPP 3.7 02:10:40 10° N 02:16:01 65° WNW 02:18:22 33° SW
SL-16 R/B 3.0 02:13:42 31° SW 02:16:03 44° W 02:22:00 10° NNW
IDEFIX/ARIANE 42P 4.3 02:12:25 10° NE 02:16:46 26° E 02:21:05 10° SSE
CZ-2D R/B 2.5 02:11:40 10° N 02:17:01 55° WNW 02:19:24 32° SW
Cosmos 1680 Rocket 3.5 02:12:32 10° NNW 02:17:49 86° ENE 02:22:58 10° SSE
KORONAS-FOTON 4.5 02:15:19 10° NNW 02:18:48 35° W 02:18:48 35° W
NOSS 3-1 (C) 4.2 02:17:24 21° S 02:20:24 38° ESE 02:26:04 10° NE
USA 267 3.4 02:15:35 10° ESE 02:22:06 77° NNE 02:28:39 10° NW
AQUA 3.9 02:17:48 10° N 02:22:32 64° WNW 02:24:26 35° SW
Cosmos 1607 3.9 02:18:17 10° NW 02:24:44 75° SW 02:31:11 10° SSE
ADEOS II 2.1 02:20:02 10° NNE 02:25:20 80° ESE 02:28:23 26° S
Cosmos 990 Rocket 4.4 02:23:20 24° S 02:26:18 57° ESE 02:31:24 10° NNE
Cosmos 1766 3.6 02:26:32 40° WSW 02:27:27 50° WNW 02:31:16 10° N
Cosmos 2263 Rocket 4.0 02:24:35 10° SSE 02:28:53 23° ESE 02:33:13 10° NE
IRS-1D 3.4 02:24:07 10° NNE 02:29:10 83° WNW 02:31:54 28° SSW
Meteor 1-22 Rocket 4.0 02:27:12 28° SSW 02:30:03 85° W 02:35:24 10° N
Cosmos 2297 Rocket 2.6 02:27:24 27° WSW 02:30:14 52° WNW 02:35:47 10° NNE
Cosmos 2219 3.8 02:27:45 25° WSW 02:30:37 45° NW 02:36:01 10° NNE
Okean 1-7 Rocket 3.6 02:27:24 10° N 02:31:50 84° E 02:35:04 18° S
IRS-1C 4.3 02:29:34 10° NNE 02:34:56 70° ESE 02:38:42 20° S
TIMED 4.4 02:31:55 10° NNW 02:36:17 70° WSW 02:39:36 17° S
Cosmos 1626 2.3 02:34:18 10° NNW 02:37:55 50° W 02:38:56 37° SW
Cosmos 2266 Rocket 4.0 02:32:22 10° N 02:38:47 85° W 02:45:02 10° S
Meteor 1-28 Rocket 3.3 02:36:22 16° SSE 02:39:20 77° ENE 02:43:09 10° N
Okean 1 Rocket 4.1 02:38:14 26° WSW 02:39:34 31° WNW 02:43:27 10° N
Cosmos 1655 Rocket 4.0 02:33:24 10° NNW 02:39:38 66° W 02:44:28 17° S
Cosmos 2237 Rocket 3.4 02:36:45 10° NW 02:40:57 22° W 02:41:37 21° WSW
CZ-4B R/B 3.6 02:37:45 10° N 02:42:26 55° WNW 02:44:51 27° SW
Cosmos 1470 2.8 02:41:43 25° S 02:43:58 78° E 02:47:57 10° NNE
Cosmos 923 Rocket 4.4 02:42:44 10° NW 02:47:46 43° WSW 02:51:06 20° SSW
SL-08 R/B 3.3 02:43:55 11° S 02:48:41 77° WSW 02:53:40 10° NNW
USA 229 DEB 4.0 02:48:34 18° SSW 02:53:24 58° ESE 03:00:06 10° NE
USA 229 4.0 02:48:40 18° SSW 02:53:29 57° ESE 03:00:09 10° NE
Cosmos 2098 Rocket 3.5 02:49:08 10° NNW 02:53:48 65° W 02:59:34 10° S
Cosmos 158 Rocket 4.3 02:50:28 10° NNW 02:55:36 48° WSW 03:00:32 11° S
OPS 8737 4.4 02:57:00 26° SSW 02:58:48 69° SE 03:01:49 10° NE
SL-14 R/B 4.2 02:58:54 10° NNW 03:02:21 30° W 03:03:47 23° SW
ERBS 3.2 02:59:51 10° WNW 03:03:33 25° SSW 03:05:35 10° SSE
NOSS 3-1 (A) 4.0 03:00:07 14° S 03:04:36 47° ESE 03:10:35 10° NE
SJ 16-02 2.0 03:02:10 22° WSW 03:04:39 42° WNW 03:08:53 10° N
CSL-04 DEB 4.4 03:06:16 10° SSE 03:10:11 78° ENE 03:14:08 10° NNW
Cosmos 1809 Rocket 4.4 03:06:46 10° NNW 03:12:51 75° W 03:18:57 10° S
Cosmos 1943 3.6 03:07:14 10° NNW 03:12:52 68° ENE 03:18:27 10° SE
MSX 4.4 03:07:20 10° NNE 03:13:01 56° E 03:18:41 10° S
IRS-P3 4.4 03:08:31 10° N 03:13:44 54° WNW 03:17:57 16° SW
Cosmos 1626 Rocket 3.4 03:09:50 10° NNW 03:14:10 77° W 03:18:28 10° S
Cosmos 1455 Rocket 3.6 03:11:32 19° SW 03:14:22 44° WNW 03:18:38 10° N
Cosmos 1758 3.5 03:13:25 18° SSW 03:16:18 56° WNW 03:20:17 10° N
Resurs 1-4 Rocket 3.8 03:13:25 10° NNW 03:17:03 19° WNW 03:20:28 11° W
Spot 4 Rocket 4.1 03:12:29 10° NNE 03:17:41 88° ESE 03:22:51 10° SSW
Meteor 1-21 Rocket 4.2 03:12:19 10° NNW 03:17:55 89° W 03:23:28 10° S
Cosmos 2227 Rocket 3.4 03:15:24 13° WSW 03:19:41 29° NW 03:24:37 10° NNE
SeaSat 1 3.4 03:17:14 10° NE 03:22:00 45° ESE 03:26:42 10° S
Landsat 5 3.4 03:21:01 10° SSE 03:24:55 83° ENE 03:28:58 10° NNW
CZ-2C R/B 2.9 03:21:54 10° NNE 03:25:49 73° ESE 03:29:37 10° S
Cosmos 1461 3.3 03:23:26 16° SW 03:26:50 59° NW 03:31:22 10° NNE
CZ-2D R/B 3.4 03:23:21 10° N 03:27:25 67° WNW 03:31:10 11° SSW
FALCON 9 DEB 3.2 03:26:27 10° WNW 03:29:52 55° SSW 03:33:15 10° SE
Cosmos 2227 4.4 03:24:52 10° SSW 03:30:36 76° ESE 03:36:24 10° NNE
ATLAS 3B CENTAUR R/B 4.4 03:27:04 13° SW 03:31:35 17° SSW 03:35:45 10° SSE
USA 215 3.5 03:25:37 10° NE 03:32:06 67° NNW 03:38:34 10° WSW
Cosmos 1758 Rocket 4.0 03:27:49 10° N 03:32:07 64° ENE 03:36:24 10° SSE
ATLAS CENTAUR R/B 4.0 03:30:06 10° SSE 03:32:26 15° ESE 03:34:42 10° ENE
Cosmos 1340 Rocket 3.5 03:29:56 15° SW 03:32:55 37° WNW 03:36:39 10° N
Cosmos 724 4.4 03:29:44 10° NW 03:35:41 64° WSW 03:41:42 10° SSE
ERS-2 2.0 03:32:33 10° SSE 03:36:10 82° WSW 03:39:51 10° NNW
Cosmos 2228 4.3 03:33:09 10° SSE 03:37:15 42° E 03:41:25 10° NNE
SL-4 R/B 2.6 03:35:42 10° W 03:38:31 24° SW 03:41:19 10° SSE
Cosmos 1953 2.4 03:35:15 10° SSW 03:39:14 62° WNW 03:43:15 10° N
Cosmos 1726 2.4 03:38:38 10° SSW 03:42:09 47° WNW 03:45:44 10° N
Cosmos 1908 3.5 03:40:28 10° S 03:44:21 72° E 03:48:17 10° NNE
Meteor 1-16 Rocket 4.2 03:40:07 10° S 03:45:29 90° E 03:51:02 10° NNE
Cosmos 2285 Rocket 4.4 03:41:00 10° S 03:47:13 65° ESE 03:53:27 10° NNE
SL-16 R/B 3.7 03:45:55 10° WNW 03:49:27 17° W 03:52:59 10° SW
H-2A R/B 2.2 03:46:38 10° S 03:50:37 47° W 03:54:36 10° NNW
Cosmos 2150 Rocket 4.3 03:46:53 10° S 03:51:59 68° ESE 03:57:12 10° NNE
Cosmos 1937 Rocket 4.1 03:47:11 10° SW 03:52:15 44° WNW 03:57:22 10° NNE
ARIANE 5 R/B 3.4 03:48:21 10° N 03:53:05 36° WNW 03:57:48 10° SW
Cosmos 1825 Rocket 3.6 03:50:21 10° N 03:54:44 86° E 03:59:03 10° S
CZ-2D R/B 4.3 03:54:35 10° NW 03:55:56 11° NW 03:57:16 10° WNW
IDEFIX/ARIANE 42P 3.0 03:51:36 10° N 03:56:35 48° WNW 04:01:33 10° SW
Cosmos 1328 3.8 03:55:09 10° NNW 03:59:09 74° W 04:03:07 10° S
CZ-4C R/B 3.7 03:57:08 10° SSW 04:00:01 30° W 04:02:59 10° NNW
Cosmos 1953 Rocket 4.1 03:56:16 10° N 04:00:47 68° E 04:05:13 10° SSE
NOSS 2-3 (E) 3.8 03:58:23 10° SW 04:02:41 74° NW 04:07:52 10° NE
CZ-4B R/B 1.7 03:59:44 10° SSE 04:03:01 69° ENE 04:06:14 10° N
ADEOS II 3.8 04:00:55 10° NNW 04:04:25 18° WNW 04:07:54 10° W
USA 267 3.7 03:59:23 10° SSE 04:05:27 40° SW 04:11:33 10° WNW
